Location: Unspecified
(0.0000°N, 0.0000°E)
Time: 18:14:10
(UTC+00:00)

STARLINK 1019 - Pass Details

Date: 19 January 2020
Orbit: 344 x 355 km, 53.0° (Epoch: 18 January)

Event Time Altitude Azimuth Distance (km) Brightness Sun altitude
Exits shadow 04:44:05 29° 41° (NE) 671 4.2 -20.2°
Drops below altitude 10° 04:45:39 10° 37° (NE) 1,290 5.7 -19.8°
Sets 04:47:38 0° 36° (NE) 2,126 6.8 -19.4°
